Weather History for KCTY - March, 2012

Change the Weather History Date:

Monday, March 12, 2012

  Actual Average Record
Temperature  
Mean Temperature 70 °F 62 °F  
Max Temperature 80 °F 76 °F 86 °F (2009)
Min Temperature 63 °F 48 °F 30 °F (2011)
Degree Days  
Heating Degree Days 0 5  
Month to date heating degree days 70  
Since 1 July heating degree days 1190  
Cooling Degree Days 6 1  
Month to date cooling degree days 12  
Year to date cooling degree days 39  
Growing Degree Days 20 (Base 50)    
Moisture  
Dew Point 59 °F    
Average Humidity 72    
Maximum Humidity 87    
Minimum Humidity 50    
Precipitation  
Precipitation 0.00 in 0.14 in 0.27 in (2002)
Month to date precipitation 1.59  
Year to date precipitation 8.90  
Sea Level Pressure  
Sea Level Pressure 30.27 in    
Wind  
Wind Speed 3 mph (East)    
Max Wind Speed 8 mph    
Max Gust Speed -    
T = Trace of Precipitation, MM = Missing Value Source: NWS Daily Summary

Daily Weather History Graph

Daily Weather History Graph

Search for Another Location

Airport or City:

Trip Planner

Search our weather history database for the weather conditions in past years. The results will help you decide how hot, cold, wet, or windy it might be!

Date:

Astronomy

Mar. 12, 2012 Rise Set
Actual Time 7:45 AM EDT 7:39 PM EDT
Civil Twilight 7:21 AM EDT 8:03 PM EDT
Nautical Twilight 6:53 AM EDT 8:30 PM EDT
Astronomical Twilight 6:26 AM EDT 8:58 PM EDT
Moon No Moon Rise 10:31 AM EDT (3/12)
Length of Visible Light 12h 41m
Length of Day
11h 54m
Waning Gibbous, 76% of the Moon is Illuminated
Mar 12
Waning Gibbous
Mar 14
Last Quarter
Mar 22
New
Mar 30
First Quarter
Apr 6
Full

Hourly Weather History & Observations

Time (EDT) Temp. Dew Point Humidity Pressure Visibility Wind Dir Wind Speed Gust Speed Precip Events Conditions
12:53 AM 64.0 °F 60.1 °F 87% 30.31 in - East 4.6 mph - N/A   Unknown
1:53 AM 63.0 °F 59.0 °F 87% 30.30 in - ESE 4.6 mph - N/A   Unknown
2:53 AM 64.0 °F 57.9 °F 80% 30.28 in - East 4.6 mph - N/A   Unknown
3:53 AM 64.0 °F 57.9 °F 80% 30.28 in - Calm Calm - N/A   Unknown
4:53 AM 64.0 °F 57.9 °F 80% 30.27 in - East 4.6 mph - N/A   Unknown
5:53 AM 64.0 °F 57.9 °F 80% 30.28 in - ENE 3.5 mph - N/A   Unknown
6:53 AM 63.0 °F 57.9 °F 84% 30.30 in - Calm Calm - N/A   Unknown
7:53 AM 63.0 °F 57.9 °F 84% 30.31 in - ENE 3.5 mph - N/A   Unknown
8:53 AM 64.0 °F 57.9 °F 80% 30.31 in - Calm Calm - N/A   Unknown
9:53 AM 66.9 °F 57.9 °F 73% 30.32 in - ESE 8.1 mph - N/A   Unknown
10:53 AM 68.0 °F 57.9 °F 70% 30.32 in - SE 8.1 mph - N/A   Unknown
11:53 AM 70.0 °F 59.0 °F 68% 30.32 in - ESE 5.8 mph - N/A   Unknown
12:53 PM 73.9 °F 60.1 °F 62% 30.31 in - Variable 4.6 mph - N/A   Unknown
1:53 PM 75.9 °F 59.0 °F 56% 30.28 in - Calm Calm - N/A   Unknown
2:53 PM 77.0 °F 59.0 °F 54% 30.26 in - Variable 6.9 mph - N/A   Unknown
3:53 PM 77.0 °F 59.0 °F 54% 30.24 in - Calm Calm - N/A   Unknown
4:53 PM 78.1 °F 57.9 °F 50% 30.22 in - Calm Calm - N/A   Unknown
5:53 PM 77.0 °F 57.9 °F 52% 30.22 in - Calm Calm - N/A   Unknown
6:53 PM 75.9 °F 61.0 °F 60% 30.22 in - NNW 3.5 mph - N/A   Unknown
7:53 PM 73.9 °F 60.1 °F 62% 30.24 in - Variable 4.6 mph - N/A   Unknown
8:53 PM 71.1 °F 61.0 °F 70% 30.24 in - North 3.5 mph - N/A   Unknown
9:53 PM 70.0 °F 61.0 °F 73% 30.25 in - Calm Calm - N/A   Unknown
10:53 PM 64.9 °F 60.1 °F 84% 30.25 in - Calm Calm - N/A   Unknown
11:53 PM 63.0 °F 59.0 °F 87% 30.26 in - ESE 3.5 mph - N/A   Unknown